This is the latest recevied weather packets stored in our database for station/object W1RCP. If no packets are shown the sender has not sent any weather packets the latest 1 day(s).
| Time | Temp. | Humidity | Pressure | Rain* | Wind** | Luminosity | Snow |
|---|---|---|---|---|---|---|---|
| 1778004113 | 27.78° C | 38% | 1026.6 hPa | 0 mm | 1.34 m/s, 209° | 843 W/m² | - |
| 1778003809 | 27.78° C | 38% | 1026.7 hPa | 0 mm | 0.45 m/s, 287° | 877 W/m² | - |
| 1778003505 | 27.78° C | 38% | 1026.7 hPa | 0 mm | 2.68 m/s, 270° | 866 W/m² | - |
| 1778003202 | 27.22° C | 40% | 1026.9 hPa | 0 mm | 2.24 m/s, 207° | 854 W/m² | - |
| 1778002898 | 27.22° C | 41% | 1027 hPa | 0 mm | 1.34 m/s, 202° | 886 W/m² | - |
| 1778002595 | 26.67° C | 40% | 1026.8 hPa | 0 mm | 0.89 m/s, 203° | 875 W/m² | - |
| 1778002292 | 27.22° C | 41% | 1026.9 hPa | 0 mm | 2.24 m/s, 211° | 909 W/m² | - |
| 1778001989 | 27.22° C | 40% | 1026.9 hPa | 0 mm | 3.13 m/s, 183° | 898 W/m² | - |
| 1778001686 | 26.67° C | 41% | 1027.2 hPa | 0 mm | 2.68 m/s, 203° | 849 W/m² | - |
| 1778001381 | 27.22° C | 41% | 1027.3 hPa | 0 mm | 0.89 m/s, 206° | 852 W/m² | - |
| 1778001078 | 27.22° C | 42% | 1027.2 hPa | 0 mm | 1.79 m/s, 206° | 822 W/m² | - |
| 1778000775 | 26.67° C | 42% | 1027.4 hPa | 0 mm | 1.79 m/s, 242° | 906 W/m² | - |
| 1778000471 | 26.67° C | 45% | 1027.4 hPa | 0 mm | 0.45 m/s, 207° | 901 W/m² | - |
| 1778000166 | 26.67° C | 43% | 1027.3 hPa | 0 mm | 1.34 m/s, 254° | 887 W/m² | - |
| 1777999862 | 26.67° C | 42% | 1027.3 hPa | 0 mm | 1.79 m/s, 227° | 813 W/m² | - |
| 1777999558 | 26.67° C | 44% | 1027.3 hPa | 0 mm | 2.24 m/s, 214° | 884 W/m² | - |
| 1777999256 | 26.11° C | 45% | 1027.5 hPa | 0 mm | 0.89 m/s, 215° | 836 W/m² | - |
| 1777998954 | 26.67° C | 44% | 1027.3 hPa | 0 mm | 1.79 m/s, 206° | 820 W/m² | - |
| 1777998651 | 26.11° C | 43% | 1027.6 hPa | 0 mm | 2.68 m/s, 231° | 863 W/m² | - |
| 1777998349 | 26.67° C | 44% | 1027.7 hPa | 0 mm | 1.79 m/s, 207° | 862 W/m² | - |
| 1777998047 | 26.67° C | 41% | 1027.7 hPa | 0 mm | 1.79 m/s, 232° | 906 W/m² | - |
| 1777997743 | 26.67° C | 45% | 1027.7 hPa | 0 mm | 1.79 m/s, 230° | 837 W/m² | - |
| 1777997441 | 26.11° C | 48% | 1027.6 hPa | 0 mm | 0.89 m/s, 158° | 926 W/m² | - |
| 1777997138 | 25.56° C | 47% | 1027.7 hPa | 0 mm | 2.24 m/s, 173° | 898 W/m² | - |
| 1777996836 | 25.56° C | 50% | 1027.7 hPa | 0 mm | 1.79 m/s, 212° | 867 W/m² | - |
* Rain latest hour (hover to see other rain measurements)
** Current wind speed in m/s (hover to see current wind gust speed)